OV1-10 R/B, 2621

Orbit data source: Space-Track

OV1-10 R/B, 2621 is space debris in LEO originally from a launch on Sun, 11 Dec 1966 UTC launched from the Air Force Western Test Range (AFWTR). Debris objects in space refer to the collection of defunct objects orbiting the Earth. Examples of debris include non-operational satellites, rocket bodies, and fragments generated from explosions, collisions, or faulty payload assembly.

Loading next visibility...
OV1-10 R/B details
Identifier
2621, 1966-111C
Orbit
LEO
Last TLE update21 hours ago
Origin
Flag of USUSAF OAR (US)
ManufacturerABL
MissionSpacecraft
Bus & MotorALTAIR, Unknown motor
Mass125 kg wet, 125 kg dry
Launch date (UTC)
1966-12-11 (58 years ago)
Launch vehicleUnknown
Launch site
Air Force Western Test Range (AFWTR)
Object type
Payload
Rocket body
Debris
Shape & HBRCyl, 2.1 m
Radar Cross Section1.347 m², Large (>1 m²)

Expand to show TLE details & history

TLE from 21 hours ago
0 OV1-10 R/B
1 02621U 66111C   24355.66525291  .00001641  00000-0  19244-3 0  9996
2 02621  93.3972 332.6933 0056763 195.9572 163.9866 14.84041916 93706
Epoch: 2024-12-20T15:57Z
Definitive object data (Epoch: 2024-12-20T15:57:57.851Z)
Latitude-0.00001°
Longitude3.47475°
Altitude657.908 km
Speed7.508 km/s
True Right ascension22h 10m 46s
True Declination0° 00' 00"
Sunlit
Object was in daylight at TLE epoch
Visualization TLE readout
Latitude-82.13113°
Longitude158.5521°
Altitude631.182 km
Speed7.549 km/s
Apparent Right ascension00h 12m 56s
Apparent Declination-68° 41' 17"
Sunlit
Object is in daylight
Visualization observer readout
Local Sidereal Time11:35:41
Azimuth186.924° SSW
Elevation-60.793°
Doppler factor1
Orbital elements
Apogee altitude653.171 km
Perigee altitude573.798 km
Semi-major axis6,991.622 km
Eccentricity0.0056763
Inclination93.3972°
RAAN332.6933°
Arg. of periapsis195.9572°
True anomaly164.16482°
Mean anomaly163.9866°
Eccentric anomaly164.07583°
Mean motion3.71258 °/min
BSTAR0.00019244
Orbital period96.97 mins
Loading maneuver chart data...
Loading historical data...
Loading historical data...
Loading historical data...
Loading historical data...
Loading historical data...
Loading historical data...
Loading historical data...
Other satellites on launch #111 in the year 1966 (1966-12-11 UTC)

OV1-10 R/B Visibility forecast

Observer location: undefined°, undefined

Span
Click to sort rows by Start time (UTC) header in descending order
Start Az.
Max El. time (UTC)
Max El. Az.
Max El.
End time (UTC)
End Az.
8 mins2024-12-21 22:49:51.733Z168.042° S2024-12-21 22:53:51.733Z49.392° ENE44.507°2024-12-21 22:57:51.733Z355.694° N
6 mins2024-12-22 10:37:51.733Z37.381° NE2024-12-22 10:40:51.733Z100.578° ESE26.427°2024-12-22 10:43:51.733Z150.982° SSE
4 mins2024-12-22 12:14:51.733Z321.579° NNW2024-12-22 12:16:51.733Z286.73° WNW18.578°2024-12-22 12:18:51.733Z251.804° W
|